[[{"header":{"parameterUnit":"m.s-1","parameterCategory":1,"la1":30.2991,"la2":30.254,"lo1":-89.0895,"lo2":-89.0444,"dy":0.0017,"dx":0.0017,"nx":28,"ny":28,"refTime":"2023-08-03T21:00:00:Z","depth":0,"parameterNumber":2,"parameterNumberName":"U-component_of_WINDS"},"data":[0,0,0,0,0,0,0,0,0,0,0,0,0,0,0,0,0,0,0,0,0,0,0,0,0,0,0,0,0,0,0,0,0,0,0,0,0,0,0,0,0,0,0,0,0,0,0,0,0,0,0,0,0,0,0,0,0,0,3.861,3.8611,0,3.8692,3.8693,3.8694,3.8661,3.8659,3.8657,3.8655,3.8743,3.8747,3.8751,0,0,0,0,0,0,0,0,0,0,0,0,0,3.8428,3.8432,3.861,3.8611,3.8612,3.8692,3.8693,3.8694,3.8661,3.8659,3.8657,3.8654,3.8741,3.8746,3.8751,0,0,0,0,0,0,0,0,0,0,0,0,0,3.8509,3.8433,3.8609,3.8605,3.8605,3.8691,3.8693,3.8694,3.8662,3.8659,3.8656,3.8653,3.874,3.8746,3.8752,3.8848,0,0,3.8771,3.8773,0,0,0,0,0,0,0,0,3.8504,3.8515,3.8605,3.8605,3.8606,3.8663,3.8661,3.8746,3.8662,3.864,3.8655,3.8652,3.8719,3.8726,3.8748,3.8852,3.8856,3.8771,3.8775,3.8778,3.8779,0,0,0,0,0,0,0,3.8499,3.8512,3.8642,3.8606,3.8607,3.86,3.8608,3.8677,3.8695,3.8642,3.864,3.865,3.8719,3.8742,3.875,3.8857,3.8771,3.8777,3.878,3.8783,3.9047,3.905,0,0,0,0,0,0,3.8492,3.8507,3.864,3.8645,3.8547,3.8606,3.8615,3.8648,3.8694,3.8698,3.8652,3.8648,3.8733,3.8743,3.8753,3.8871,3.8778,3.8783,3.8787,3.9044,3.9048,3.9051,0,0,0,0,0,0,3.8489,3.8504,3.8636,3.8575,3.8592,3.8612,3.8649,3.8651,3.8675,3.8702,3.8705,3.8673,3.8731,3.8744,3.8825,3.8873,3.8786,3.8792,3.904,3.9045,3.905,3.9106,0,0,0,0,0,0,3.8484,3.8503,3.8539,3.8576,3.8595,3.8706,3.8652,3.8655,3.8685,3.868,3.8722,3.8726,3.873,3.8816,3.8831,3.888,3.8797,3.9036,3.9042,3.9048,3.91,3.9112,3.9122,0,0,0,0,0,3.8477,3.8552,3.8541,3.8557,3.864,3.8709,3.8719,3.8721,3.8689,3.8726,3.8744,3.8725,3.8865,3.8825,3.8841,3.8893,3.9033,3.904,3.9048,3.9095,3.911,3.9122,0,0,0,0,0,0,3.852,3.8556,3.8545,3.8633,3.8668,3.8703,3.8749,3.8737,3.8782,3.8776,3.8777,3.8787,3.887,3.889,3.8844,3.899,3.8944,3.8956,3.8974,3.8989,3.9,3.8994,3.8802,0,0,0,0,0,3.854,3.8591,3.8621,3.8696,3.8714,3.8729,3.8759,3.8757,3.8794,3.8808,3.8832,3.8869,3.8921,3.8956,3.9006,3.9102,3.9112,3.9146,3.9158,3.9167,3.9177,3.9231,3.9248,3.9076,3.9076,3.9076,0,0,3.8581,3.8607,3.864,3.8705,3.8732,3.8787,3.8741,3.8801,3.8842,3.8818,3.8895,3.8914,3.8956,3.9045,3.9086,3.9064,3.9226,3.9176,3.9183,3.9188,3.9241,3.9257,3.9271,3.9081,3.908,3.9079,0,0,3.8685,3.8709,3.8775,3.8803,3.8844,3.8853,3.887,3.8907,3.8918,3.8996,3.8979,3.9029,3.9119,3.915,3.9178,3.9295,3.928,3.9311,3.9371,3.9425,3.9438,3.945,3.9494,3.9509,3.9321,3.9321,3.9321,0,3.8731,3.8812,3.8811,3.8873,3.8903,3.8883,3.8951,3.8979,3.9034,3.9056,3.903,3.9144,3.9171,3.9268,3.9297,3.9319,3.9339,3.9307,3.9436,3.9448,3.9459,3.9501,3.9517,3.9325,3.9324,3.9324,3.9324,0,3.8868,3.8925,3.8974,3.9027,3.9063,3.9128,3.9139,3.9175,3.9171,3.9184,3.9265,3.9296,3.9353,3.9376,3.9372,3.9474,3.9459,3.9435,3.9389,3.9479,3.9519,3.9534,3.933,3.9329,3.9328,3.9327,0,0,3.9001,3.9054,3.9072,3.9097,3.9141,3.9186,3.9251,3.9305,3.9338,3.9377,3.9433,3.951,3.9488,3.952,3.952,3.9566,3.966,3.9537,3.9538,3.956,3.9776,3.9795,3.9813,3.965,3.9653,3.9655,3.9773,0,3.9109,3.9221,3.9223,3.9327,3.9381,3.9363,3.942,3.9454,3.9468,3.9517,3.9533,3.9589,3.9555,3.9574,3.9619,3.9639,3.9704,3.963,3.9704,3.9706,3.9695,3.9833,3.9853,3.9963,3.9788,3.9791,3.9793,0,3.925,3.9294,3.9403,3.9441,3.9464,3.9514,3.9566,3.9612,3.9651,3.9659,3.9694,3.9688,3.9756,3.9708,3.9803,3.9753,3.9783,3.9798,3.9802,3.981,3.9756,3.9847,3.9997,4.0014,3.9817,3.9815,3.9813,0,3.9338,3.9424,3.9501,3.9523,3.9569,3.9605,3.9627,3.9663,3.9696,3.9742,3.9764,3.9817,3.9846,3.9888,3.9897,3.9861,3.9993,3.9945,4.0003,4.0003,4.0032,4.003,4.0191,4.005,4.0049,4.0049,4.0049,0,3.946,3.9528,3.9541,3.9589,3.9665,3.9668,3.9744,3.9762,3.9795,3.9847,3.9835,3.9885,3.9893,3.9945,3.9952,4.0031,4.0044,4.0053,4.0055,4.0055,4.0054,4.0076,4.0069,4.0053,4.0052,4.0052,4.0051,0,3.9571,3.9583,3.9666,3.9703,3.9714,3.9769,3.9801,3.9848,3.9861,3.9927,3.9943,3.9964,4.0025,4.0037,4.0109,4.0115,4.0209,4.0202,4.0195,4.0195,4.0253,4.0248,4.0434,4.046,4.03,4.0302,4.0303,0,3.9648,3.97,3.9743,3.9777,3.9799,3.9854,3.9888,3.9893,3.9929,3.9979,4.002,4.0079,4.0127,4.0225,4.0248,4.0303,4.0299,4.0361,4.0307,4.0307,4.0302,4.0299,4.0306,4.0371,4.0373,4.0374,4.0375,0,3.9785,3.9789,3.9838,3.989,3.9931,3.9972,4.0011,4.004,4.005,4.0092,4.0154,4.0191,4.0264,4.0324,4.038,4.0403,4.0393,4.0392,4.0408,4.041,4.0405,4.041,4.0225,4.0388,4.0386,4.0386,4.0385,4.0384,3.9883,3.9929,3.9967,4.0022,4.0052,4.009,4.0136,4.0155,4.0206,4.0266,4.0266,4.0334,4.0374,4.0448,4.0475,4.0529,4.051,4.0533,4.054,4.0546,4.0552,4.0395,4.0539,4.0539,4.0538,4.0538,4.0538,0,4.0021,4.0044,4.0095,4.0151,4.0195,4.0179,4.0222,4.0261,4.0321,4.0358,4.0405,4.0477,4.0536,4.0563,4.0621,4.066,4.0656,4.0675,4.0673,4.0679,4.0565,4.0545,4.0677,4.0677,4.0677,4.0677,4.0677,4.0677,4.0098,4.0175,4.0184,4.0277,4.03,4.0366,4.0392,4.0427,4.0458,4.0538,4.0586,4.0603,4.0638,4.0699,4.0752,4.0759,4.0782,4.0803,4.0808,4.0701,4.0687,4.0673,4.0655,4.0808,4.0808,4.0918,4.0919,4.092]},{"header":{"parameterUnit":"m.s-1","parameterCategory":1,"la1":30.2991,"la2":30.254,"lo1":-89.0895,"lo2":-89.0444,"dy":0.0017,"dx":0.0017,"nx":28,"ny":28,"refTime":"2023-08-03T21:00:00:Z","depth":0,"parameterNumber":3,"parameterNumberName":"V-component_of_WINDS"},"data":[0,0,0,0,0,0,0,0,0,0,0,0,0,0,0,0,0,0,0,0,0,0,0,0,0,0,0,0,0,0,0,0,0,0,0,0,0,0,0,0,0,0,0,0,0,0,0,0,0,0,0,0,0,0,0,0,0,0,-0.8713,-0.8714,0,-0.8756,-0.8757,-0.8757,-0.8773,-0.8773,-0.8772,-0.8772,-0.8817,-0.8818,-0.8819,0,0,0,0,0,0,0,0,0,0,0,0,0,-0.8644,-0.8646,-0.8713,-0.8714,-0.8714,-0.8756,-0.8757,-0.8757,-0.8773,-0.8773,-0.8772,-0.8772,-0.8816,-0.8818,-0.8819,0,0,0,0,0,0,0,0,0,0,0,0,0,-0.868,-0.8646,-0.8713,-0.8727,-0.8729,-0.8756,-0.8757,-0.8758,-0.8773,-0.8773,-0.8772,-0.8772,-0.8816,-0.8818,-0.882,-0.8836,0,0,-0.8826,-0.8826,0,0,0,0,0,0,0,0,-0.8678,-0.8682,-0.8724,-0.8726,-0.8728,-0.8759,-0.8749,-0.8784,-0.8773,-0.8756,-0.8772,-0.8772,-0.8798,-0.8801,-0.881,-0.8838,-0.884,-0.8826,-0.8827,-0.8828,-0.8828,0,0,0,0,0,0,0,-0.8675,-0.868,-0.873,-0.8725,-0.8727,-0.8731,-0.8736,-0.8756,-0.8778,-0.8757,-0.8759,-0.8764,-0.8799,-0.8808,-0.8811,-0.8841,-0.8826,-0.8827,-0.8829,-0.8829,-0.8887,-0.8887,0,0,0,0,0,0,-0.867,-0.8678,-0.8729,-0.8731,-0.8702,-0.8733,-0.8738,-0.8749,-0.8777,-0.8781,-0.8764,-0.8764,-0.8804,-0.8808,-0.8812,-0.8835,-0.8828,-0.883,-0.8831,-0.8887,-0.8887,-0.8888,0,0,0,0,0,0,-0.8669,-0.8675,-0.8727,-0.8705,-0.8712,-0.8734,-0.8747,-0.875,-0.8759,-0.8782,-0.8786,-0.8769,-0.8804,-0.881,-0.8831,-0.8837,-0.8831,-0.8832,-0.8886,-0.8887,-0.8887,-0.8879,0,0,0,0,0,0,-0.8667,-0.8674,-0.868,-0.8705,-0.8713,-0.8744,-0.8747,-0.8751,-0.8763,-0.8764,-0.8788,-0.8792,-0.8805,-0.8828,-0.8833,-0.8839,-0.8834,-0.8886,-0.8887,-0.8887,-0.8879,-0.888,-0.888,0,0,0,0,0,-0.8664,-0.8676,-0.8681,-0.8687,-0.8722,-0.8745,-0.8749,-0.8763,-0.8763,-0.877,-0.8785,-0.8791,-0.8835,-0.883,-0.8835,-0.8843,-0.8886,-0.8886,-0.8887,-0.8879,-0.8879,-0.888,0,0,0,0,0,0,-0.8651,-0.868,-0.8685,-0.8705,-0.8722,-0.8747,-0.8756,-0.8763,-0.8781,-0.8781,-0.8798,-0.8803,-0.8823,-0.8835,-0.8828,-0.8861,-0.8861,-0.8863,-0.8853,-0.8853,-0.8854,-0.885,-0.8836,0,0,0,0,0,-0.8651,-0.8667,-0.8691,-0.8706,-0.8715,-0.8734,-0.8744,-0.8754,-0.8772,-0.878,-0.8796,-0.8814,-0.8832,-0.8843,-0.8861,-0.8881,-0.8887,-0.8889,-0.8889,-0.8889,-0.8891,-0.8904,-0.8905,-0.889,-0.889,-0.889,0,0,-0.865,-0.8668,-0.8677,-0.8704,-0.8719,-0.8735,-0.874,-0.8757,-0.877,-0.8782,-0.8803,-0.8816,-0.8837,-0.8858,-0.8868,-0.8868,-0.8897,-0.889,-0.889,-0.8892,-0.8905,-0.8906,-0.8907,-0.8891,-0.889,-0.889,0,0,-0.8657,-0.8672,-0.8687,-0.8701,-0.8723,-0.8736,-0.874,-0.8764,-0.8772,-0.8794,-0.8804,-0.8819,-0.8849,-0.8864,-0.8876,-0.889,-0.8897,-0.8895,-0.8897,-0.8909,-0.891,-0.8911,-0.8917,-0.8919,-0.8896,-0.8896,-0.8896,0,-0.8653,-0.8679,-0.8694,-0.8711,-0.8723,-0.8735,-0.8751,-0.8764,-0.8791,-0.8799,-0.8799,-0.8838,-0.8853,-0.8878,-0.8882,-0.889,-0.8896,-0.8892,-0.8908,-0.891,-0.8911,-0.8917,-0.8919,-0.8896,-0.8896,-0.8896,-0.8896,0,-0.8673,-0.8691,-0.87,-0.8726,-0.8739,-0.8755,-0.8773,-0.8785,-0.8794,-0.8807,-0.8829,-0.8847,-0.8869,-0.8876,-0.8884,-0.8902,-0.8902,-0.8905,-0.8905,-0.8912,-0.8918,-0.892,-0.8896,-0.8896,-0.8896,-0.8896,0,0,-0.8673,-0.8708,-0.8711,-0.8723,-0.8749,-0.8762,-0.878,-0.8801,-0.8811,-0.8829,-0.8845,-0.887,-0.8874,-0.8887,-0.8897,-0.8907,-0.8918,-0.8909,-0.891,-0.8911,-0.8941,-0.8939,-0.8941,-0.8923,-0.8923,-0.8924,-0.8939,0,-0.8684,-0.8715,-0.873,-0.8754,-0.8771,-0.8784,-0.8799,-0.8816,-0.8829,-0.8845,-0.8859,-0.8878,-0.888,-0.8888,-0.8899,-0.8915,-0.8925,-0.8914,-0.8938,-0.8939,-0.8933,-0.8944,-0.8942,-0.8955,-0.8941,-0.8942,-0.8942,0,-0.8701,-0.8719,-0.8746,-0.877,-0.8778,-0.8791,-0.8813,-0.8828,-0.8849,-0.8857,-0.8872,-0.8882,-0.8901,-0.89,-0.8927,-0.8919,-0.893,-0.8939,-0.894,-0.8943,-0.8941,-0.8948,-0.896,-0.8962,-0.8946,-0.8945,-0.8945,0,-0.8699,-0.8731,-0.8751,-0.8761,-0.879,-0.8799,-0.8811,-0.8831,-0.8844,-0.8863,-0.8871,-0.8892,-0.8904,-0.892,-0.8935,-0.8933,-0.8961,-0.8961,-0.8969,-0.8969,-0.8975,-0.8975,-0.899,-0.8981,-0.8981,-0.8981,-0.8981,0,-0.871,-0.8726,-0.8751,-0.8763,-0.8782,-0.8798,-0.8816,-0.883,-0.8848,-0.8863,-0.8875,-0.889,-0.8909,-0.8926,-0.8939,-0.896,-0.8965,-0.8973,-0.8976,-0.8972,-0.8971,-0.898,-0.8979,-0.8981,-0.8981,-0.8981,-0.8981,0,-0.8711,-0.8728,-0.8751,-0.8777,-0.8784,-0.8796,-0.8818,-0.8831,-0.8845,-0.8865,-0.887,-0.8892,-0.8913,-0.893,-0.8957,-0.8965,-0.8988,-0.8991,-0.8981,-0.8983,-0.899,-0.899,-0.9012,-0.9016,-0.9004,-0.9004,-0.9004,0,-0.8717,-0.873,-0.8757,-0.8769,-0.8781,-0.8799,-0.8812,-0.8829,-0.8842,-0.8867,-0.8877,-0.8899,-0.8918,-0.8951,-0.8969,-0.899,-0.8994,-0.9001,-0.8998,-0.8994,-0.8995,-0.8995,-0.8997,-0.9001,-0.9001,-0.9001,-0.9001,0,-0.8727,-0.8735,-0.8753,-0.8775,-0.879,-0.8808,-0.8826,-0.8834,-0.8855,-0.8869,-0.8891,-0.8905,-0.8933,-0.8955,-0.8979,-0.8992,-0.9,-0.9002,-0.9005,-0.9002,-0.8996,-0.9,-0.8982,-0.9001,-0.9001,-0.9001,-0.9001,-0.9001,-0.8731,-0.8743,-0.8765,-0.8785,-0.88,-0.8817,-0.8831,-0.8846,-0.8865,-0.8889,-0.8898,-0.8921,-0.8942,-0.8974,-0.8988,-0.9006,-0.9007,-0.9011,-0.9013,-0.9014,-0.9013,-0.8992,-0.901,-0.901,-0.901,-0.901,-0.901,0,-0.8742,-0.8756,-0.8775,-0.88,-0.8816,-0.8823,-0.8843,-0.8856,-0.8876,-0.8895,-0.8913,-0.8939,-0.896,-0.898,-0.9003,-0.9014,-0.9018,-0.9019,-0.9019,-0.9022,-0.9011,-0.9006,-0.9015,-0.9015,-0.9015,-0.9015,-0.9015,-0.9015,-0.8749,-0.8771,-0.8781,-0.8811,-0.8825,-0.8847,-0.8859,-0.8875,-0.889,-0.8918,-0.8936,-0.8949,-0.8969,-0.8993,-0.9014,-0.9019,-0.9027,-0.9027,-0.9034,-0.9023,-0.9022,-0.9022,-0.9018,-0.9029,-0.9029,-0.9043,-0.9043,-0.9044]}]]